Time,TemperatureF,DewpointF,PressureIn,WindDirection,WindDirectionDegrees,WindSpeedMPH,WindSpeedGustMPH,Humidity,HourlyPrecipIn,Conditions,Clouds,dailyrainin,SoftwareType,DateUTC
2013-04-29 00:02:00,62.0,48.0,-100.00,SW,230,9.0,11.0,62,-99.99,,,-99.99,,2013-04-29 05:02:00,
2013-04-29 00:12:00,62.0,48.0,-100.00,SW,230,9.0,11.0,62,-99.99,,,-99.99,,2013-04-29 05:12:00,
2013-04-29 00:32:00,57.0,55.0,-100.00,WNW,290,0.0,2.0,93,-99.99,,,-99.99,,2013-04-29 05:32:00,
2013-04-29 00:42:00,57.0,55.0,-100.00,WNW,290,0.0,2.0,93,-99.99,,,-99.99,,2013-04-29 05:42:00,
2013-04-29 00:52:00,57.0,55.0,-100.00,WNW,290,0.0,2.0,93,-99.99,,,-99.99,,2013-04-29 05:52:00,
2013-04-29 01:02:00,57.0,55.0,-100.00,WNW,290,0.0,2.0,93,-99.99,,,-99.99,,2013-04-29 06:02:00,
2013-04-29 01:11:00,57.0,55.0,-100.00,WNW,290,0.0,2.0,93,-99.99,,,-99.99,,2013-04-29 06:11:00,
2013-04-29 01:32:00,57.0,56.0,-100.00,South,190,6.0,10.0,97,-99.99,,,-99.99,,2013-04-29 06:32:00,
2013-04-29 01:42:00,57.0,56.0,-100.00,South,190,6.0,10.0,97,-99.99,,,-99.99,,2013-04-29 06:42:00,
2013-04-29 01:52:00,57.0,56.0,-100.00,South,190,6.0,10.0,97,-99.99,,,-99.99,,2013-04-29 06:52:00,
2013-04-29 02:01:00,57.0,56.0,-100.00,South,190,6.0,10.0,97,-99.99,,,-99.99,,2013-04-29 07:01:00,
2013-04-29 02:11:00,57.0,56.0,-100.00,South,190,6.0,10.0,97,-99.99,,,-99.99,,2013-04-29 07:11:00,
2013-04-29 02:32:00,57.0,56.0,-100.00,SSW,195,6.0,11.0,97,-99.99,,,-99.99,,2013-04-29 07:32:00,
2013-04-29 02:42:00,57.0,56.0,-100.00,SSW,195,6.0,11.0,97,-99.99,,,-99.99,,2013-04-29 07:42:00,
2013-04-29 02:52:00,57.0,56.0,-100.00,SSW,195,6.0,11.0,97,-99.99,,,-99.99,,2013-04-29 07:52:00,
2013-04-29 03:03:00,57.0,56.0,-100.00,SSW,195,6.0,11.0,97,-99.99,,,-99.99,,2013-04-29 08:03:00,
2013-04-29 03:11:00,57.0,56.0,-100.00,SSW,195,6.0,11.0,97,-99.99,,,-99.99,,2013-04-29 08:11:00,
2013-04-29 03:32:00,58.0,55.0,-100.00,SW,230,4.0,9.0,90,-99.99,,,-99.99,,2013-04-29 08:32:00,
2013-04-29 03:42:00,58.0,55.0,-100.00,SW,230,4.0,9.0,90,-99.99,,,-99.99,,2013-04-29 08:42:00,
2013-04-29 03:52:00,58.0,55.0,-100.00,SW,230,4.0,9.0,90,-99.99,,,-99.99,,2013-04-29 08:52:00,
2013-04-29 04:01:00,58.0,55.0,-100.00,SW,230,4.0,9.0,90,-99.99,,,-99.99,,2013-04-29 09:01:00,
2013-04-29 04:12:00,58.0,55.0,-100.00,SW,230,4.0,9.0,90,-99.99,,,-99.99,,2013-04-29 09:12:00,
2013-04-29 04:33:00,56.0,55.0,-100.00,SW,230,4.0,6.0,95,-99.99,,,-99.99,,2013-04-29 09:33:00,
2013-04-29 04:42:00,56.0,55.0,-100.00,WNW,295,3.0,6.0,95,-99.99,,,-99.99,,2013-04-29 09:42:00,
2013-04-29 04:53:00,56.0,55.0,-100.00,WNW,295,3.0,6.0,95,-99.99,,,-99.99,,2013-04-29 09:53:00,
2013-04-29 05:02:00,56.0,55.0,-100.00,WNW,295,3.0,6.0,95,-99.99,,,-99.99,,2013-04-29 10:02:00,
2013-04-29 05:12:00,56.0,55.0,-100.00,WNW,295,3.0,6.0,95,-99.99,,,-99.99,,2013-04-29 10:12:00,
2013-04-29 05:32:00,55.0,54.0,-100.00,WNW,295,1.0,4.0,97,-99.99,,,-99.99,,2013-04-29 10:32:00,
2013-04-29 05:42:00,55.0,54.0,-100.00,WNW,295,1.0,4.0,97,-99.99,,,-99.99,,2013-04-29 10:42:00,
2013-04-29 05:52:00,55.0,54.0,-100.00,WNW,295,1.0,4.0,97,-99.99,,,-99.99,,2013-04-29 10:52:00,
2013-04-29 06:02:00,55.0,54.0,-100.00,WNW,295,1.0,4.0,97,-99.99,,,-99.99,,2013-04-29 11:02:00,
2013-04-29 06:12:00,55.0,54.0,-100.00,WNW,295,1.0,4.0,97,-99.99,,,-99.99,,2013-04-29 11:12:00,
2013-04-29 06:32:00,54.0,53.0,-100.00,NW,305,0.0,1.0,99,-99.99,,,-99.99,,2013-04-29 11:32:00,
2013-04-29 06:42:00,54.0,53.0,-100.00,NW,305,0.0,1.0,99,-99.99,,,-99.99,,2013-04-29 11:42:00,
2013-04-29 06:52:00,54.0,53.0,-100.00,NW,305,0.0,1.0,99,-99.99,,,-99.99,,2013-04-29 11:52:00,
2013-04-29 07:01:00,54.0,53.0,-100.00,NW,305,0.0,1.0,99,-99.99,,,-99.99,,2013-04-29 12:01:00,
2013-04-29 07:12:00,54.0,53.0,-100.00,NW,305,0.0,1.0,99,-99.99,,,-99.99,,2013-04-29 12:12:00,
2013-04-29 07:32:00,55.0,54.0,-100.00,SE,140,1.0,1.0,99,-99.99,,,-99.99,,2013-04-29 12:32:00,
2013-04-29 07:42:00,55.0,54.0,-100.00,SE,140,1.0,1.0,99,-99.99,,,-99.99,,2013-04-29 12:42:00,
2013-04-29 07:52:00,55.0,54.0,-100.00,SE,140,1.0,1.0,99,-99.99,,,-99.99,,2013-04-29 12:52:00,
2013-04-29 08:01:00,55.0,54.0,-100.00,SE,140,1.0,1.0,99,-99.99,,,-99.99,,2013-04-29 13:01:00,
2013-04-29 08:11:00,55.0,54.0,-100.00,SE,140,1.0,1.0,99,-99.99,,,-99.99,,2013-04-29 13:11:00,
2013-04-29 08:32:00,56.0,55.0,-100.00,SE,130,1.0,3.0,99,-99.99,,,-99.99,,2013-04-29 13:32:00,
2013-04-29 08:42:00,56.0,55.0,-100.00,SE,130,1.0,3.0,99,-99.99,,,-99.99,,2013-04-29 13:42:00,
2013-04-29 08:52:00,56.0,55.0,-100.00,SE,130,1.0,3.0,99,-99.99,,,-99.99,,2013-04-29 13:52:00,
2013-04-29 09:02:00,56.0,55.0,-100.00,SE,130,1.0,3.0,99,-99.99,,,-99.99,,2013-04-29 14:02:00,
2013-04-29 09:11:00,56.0,55.0,-100.00,SE,130,1.0,3.0,99,-99.99,,,-99.99,,2013-04-29 14:11:00,
2013-04-29 09:32:00,57.0,57.0,-100.00,NNE,25,1.0,4.0,99,-99.99,,,-99.99,,2013-04-29 14:32:00,
2013-04-29 09:42:00,57.0,57.0,-100.00,NE,45,2.0,4.0,98,-99.99,,,-99.99,,2013-04-29 14:42:00,
2013-04-29 09:52:00,57.0,57.0,-100.00,NE,45,2.0,4.0,98,-99.99,,,-99.99,,2013-04-29 14:52:00,
2013-04-29 10:01:00,57.0,57.0,-100.00,NE,45,2.0,4.0,98,-99.99,,,-99.99,,2013-04-29 15:01:00,
2013-04-29 10:12:00,57.0,57.0,-100.00,NE,45,2.0,4.0,98,-99.99,,,-99.99,,2013-04-29 15:12:00,
2013-04-29 11:33:00,58.0,56.0,-100.00,North,0,1.0,4.0,91,-99.99,,,-99.99,,2013-04-29 16:33:00,
2013-04-29 11:42:00,60.0,56.0,-100.00,NE,50,1.0,4.0,90,-99.99,,,-99.99,,2013-04-29 16:42:00,
2013-04-29 11:52:00,60.0,56.0,-100.00,NE,50,1.0,4.0,90,-99.99,,,-99.99,,2013-04-29 16:52:00,
2013-04-29 12:02:00,60.0,56.0,-100.00,NE,50,1.0,4.0,90,-99.99,,,-99.99,,2013-04-29 17:02:00,
2013-04-29 12:12:00,60.0,56.0,-100.00,NE,50,1.0,4.0,90,-99.99,,,-99.99,,2013-04-29 17:12:00,
2013-04-29 12:32:00,64.0,57.0,-100.00,North,0,1.0,4.0,77,-99.99,,,-99.99,,2013-04-29 17:32:00,
2013-04-29 12:42:00,64.0,57.0,-100.00,North,0,1.0,4.0,77,-99.99,,,-99.99,,2013-04-29 17:42:00,
2013-04-29 12:52:00,64.0,57.0,-100.00,North,0,1.0,4.0,77,-99.99,,,-99.99,,2013-04-29 17:52:00,
2013-04-29 13:01:00,64.0,57.0,-100.00,North,0,1.0,4.0,77,-99.99,,,-99.99,,2013-04-29 18:01:00,
2013-04-29 13:13:00,64.0,57.0,-100.00,North,0,1.0,4.0,77,-99.99,,,-99.99,,2013-04-29 18:13:00,
2013-04-29 13:32:00,68.0,54.0,-100.00,SE,125,4.0,9.0,61,-99.99,,,-99.99,,2013-04-29 18:32:00,
2013-04-29 13:42:00,68.0,54.0,-100.00,SE,125,4.0,9.0,61,-99.99,,,-99.99,,2013-04-29 18:42:00,
2013-04-29 13:52:00,68.0,54.0,-100.00,SE,125,4.0,9.0,61,-99.99,,,-99.99,,2013-04-29 18:52:00,
2013-04-29 14:01:00,68.0,54.0,-100.00,SE,125,4.0,9.0,61,-99.99,,,-99.99,,2013-04-29 19:01:00,
2013-04-29 14:11:00,68.0,54.0,-100.00,SE,125,4.0,9.0,61,-99.99,,,-99.99,,2013-04-29 19:11:00,
2013-04-29 14:32:00,74.0,52.0,-100.00,South,190,0.0,7.0,47,-99.99,,,-99.99,,2013-04-29 19:32:00,
2013-04-29 14:42:00,74.0,52.0,-100.00,South,190,0.0,7.0,47,-99.99,,,-99.99,,2013-04-29 19:42:00,
2013-04-29 14:52:00,74.0,52.0,-100.00,South,190,0.0,7.0,47,-99.99,,,-99.99,,2013-04-29 19:52:00,
2013-04-29 15:02:00,74.0,52.0,-100.00,South,190,0.0,7.0,47,-99.99,,,-99.99,,2013-04-29 20:02:00,
2013-04-29 15:11:00,74.0,52.0,-100.00,South,190,0.0,7.0,47,-99.99,,,-99.99,,2013-04-29 20:11:00,
2013-04-29 15:32:00,75.0,52.0,-100.00,SW,220,6.0,11.0,45,-99.99,,,-99.99,,2013-04-29 20:32:00,
2013-04-29 15:42:00,75.0,52.0,-100.00,SW,220,6.0,11.0,45,-99.99,,,-99.99,,2013-04-29 20:42:00,
2013-04-29 15:52:00,75.0,52.0,-100.00,SW,220,6.0,11.0,45,-99.99,,,-99.99,,2013-04-29 20:52:00,
2013-04-29 16:01:00,75.0,52.0,-100.00,SW,220,6.0,11.0,45,-99.99,,,-99.99,,2013-04-29 21:01:00,
2013-04-29 16:11:00,75.0,52.0,-100.00,SW,220,6.0,11.0,45,-99.99,,,-99.99,,2013-04-29 21:11:00,
2013-04-29 16:33:00,75.0,51.0,-100.00,SE,140,7.0,14.0,43,-99.99,,,-99.99,,2013-04-29 21:33:00,
2013-04-29 16:43:00,75.0,51.0,-100.00,SE,140,7.0,14.0,43,-99.99,,,-99.99,,2013-04-29 21:43:00,
2013-04-29 16:53:00,75.0,51.0,-100.00,SE,140,7.0,14.0,43,-99.99,,,-99.99,,2013-04-29 21:53:00,
2013-04-29 17:02:00,75.0,51.0,-100.00,SE,140,7.0,14.0,43,-99.99,,,-99.99,,2013-04-29 22:02:00,
2013-04-29 17:13:00,75.0,51.0,-100.00,SE,140,7.0,14.0,43,-99.99,,,-99.99,,2013-04-29 22:13:00,
2013-04-29 17:32:00,72.0,50.0,-100.00,SSE,160,5.0,17.0,46,-99.99,,,-99.99,,2013-04-29 22:32:00,
2013-04-29 17:42:00,72.0,50.0,-100.00,SSE,160,5.0,17.0,46,-99.99,,,-99.99,,2013-04-29 22:42:00,
2013-04-29 17:53:00,72.0,50.0,-100.00,SSE,160,5.0,17.0,46,-99.99,,,-99.99,,2013-04-29 22:53:00,
2013-04-29 18:02:00,72.0,50.0,-100.00,SSE,160,5.0,17.0,46,-99.99,,,-99.99,,2013-04-29 23:02:00,
2013-04-29 18:11:00,72.0,50.0,-100.00,SSE,160,5.0,17.0,46,-99.99,,,-99.99,,2013-04-29 23:11:00,
2013-04-29 18:32:00,72.0,51.0,-100.00,SSE,160,7.0,17.0,47,-99.99,,,-99.99,,2013-04-29 23:32:00,
2013-04-29 18:42:00,72.0,51.0,-100.00,SSE,160,7.0,17.0,47,-99.99,,,-99.99,,2013-04-29 23:42:00,
2013-04-29 18:52:00,72.0,51.0,-100.00,SSE,160,7.0,17.0,47,-99.99,,,-99.99,,2013-04-29 23:52:00,
2013-04-29 19:01:00,72.0,51.0,-100.00,SSE,160,7.0,17.0,47,-99.99,,,-99.99,,2013-04-30 00:01:00,
2013-04-29 19:11:00,72.0,51.0,-100.00,SSE,160,7.0,17.0,47,-99.99,,,-99.99,,2013-04-30 00:11:00,
2013-04-29 19:32:00,70.0,51.0,-100.00,SSW,200,7.0,19.0,51,-99.99,,,-99.99,,2013-04-30 00:32:00,
2013-04-29 19:42:00,70.0,51.0,-100.00,SSW,200,7.0,19.0,51,-99.99,,,-99.99,,2013-04-30 00:42:00,
2013-04-29 19:52:00,70.0,51.0,-100.00,SSW,200,7.0,19.0,51,-99.99,,,-99.99,,2013-04-30 00:52:00,
2013-04-29 20:02:00,70.0,51.0,-100.00,SSW,200,7.0,19.0,51,-99.99,,,-99.99,,2013-04-30 01:02:00,
2013-04-29 20:11:00,70.0,51.0,-100.00,SSW,200,7.0,19.0,51,-99.99,,,-99.99,,2013-04-30 01:11:00,
2013-04-29 20:32:00,68.0,50.0,-100.00,SSE,160,6.0,15.0,53,-99.99,,,-99.99,,2013-04-30 01:32:00,
2013-04-29 20:42:00,67.0,50.0,-100.00,SSE,160,5.0,12.0,54,-99.99,,,-99.99,,2013-04-30 01:42:00,
2013-04-29 20:52:00,67.0,50.0,-100.00,SSE,160,5.0,12.0,54,-99.99,,,-99.99,,2013-04-30 01:52:00,
2013-04-29 21:01:00,67.0,50.0,-100.00,SSE,160,5.0,12.0,54,-99.99,,,-99.99,,2013-04-30 02:01:00,
2013-04-29 21:11:00,67.0,50.0,-100.00,SSE,160,5.0,12.0,54,-99.99,,,-99.99,,2013-04-30 02:11:00,
2013-04-29 22:33:00,60.0,52.0,-100.00,SE,140,2.0,4.0,75,-99.99,,,-99.99,,2013-04-30 03:33:00,
2013-04-29 22:43:00,60.0,52.0,-100.00,SE,140,1.0,4.0,76,-99.99,,,-99.99,,2013-04-30 03:43:00,
2013-04-29 22:52:00,60.0,52.0,-100.00,SE,140,1.0,4.0,76,-99.99,,,-99.99,,2013-04-30 03:52:00,
2013-04-29 23:02:00,60.0,52.0,-100.00,SE,140,1.0,4.0,76,-99.99,,,-99.99,,2013-04-30 04:02:00,
2013-04-29 23:12:00,60.0,52.0,-100.00,SE,140,1.0,4.0,76,-99.99,,,-99.99,,2013-04-30 04:12:00,